SCP
-0 -0 -1 -0 -0 -1 -1 -1 -0 -0 -1 -2 -2 -1 -1 -0 -0 0 -0 0 -0 -0 -0 0 -0 0 0 -0 -0 0 0 0 0
-0 -0 -0 -0 -0 -0 -0 -1 -1 -0 -0 -1 -1 -1 -0 -0 0 0 0 0 0 0 0 -0 -1 -1 -1 -0 -0 0 0 0 0
-0 -0 -0 -0 0 0 0 0 -0 -0 -1 -2 -1 -1 -0 -0 0 0 0 0 0 0 -0 0 1 -1 -1 0 0 0 0 0 0
-0 -0 0 0 0 0 0 0 0 -0 0 -1 -0 -0 0 0 0 0 0 0 0 0 -0 -0 0 2 1 1 1 1 0 0 0
-0 -0 -0 0 0 0 0 0 0 0 -0 -0 -0 0 0 0 0 0 0 0 0 0 0 1 1 1 2 2 1 1 1 0 0
-0 0 0 0 0 0 0 0 0 0 0 0 0 0 0 -0 0 0 0 -0 1 -0 0 1 1 1 1 2 1 1 1 0 0
0 0 0 0 0 0 0 0 0 0 0 0 0 0 1 1 1 1 0 0 0 0 1 1 1 1 1 2 1 1 1 1 1
-0 0 0 0 1 1 0 0 0 0 0 0 1 1 1 2 2 2 2 2 2 2 2 2 2 2 2 2 2 2 1 1 1
0 0 0 1 1 1 0 0 1 1 1 1 2 2 3 3 2 2 1 1 1 2 2 2 2 1 1 1 2 1 1 1 0
1 1 1 2 1 1 1 0 1 1 1 2 2 2 3 3 2 2 2 1 1 1 1 1 1 1 1 1 1 1 0 0 1
3 2 2 2 1 1 1 0 1 1 1 2 2 2 2 2 2 2 2 2 2 1 1 1 1 1 1 1 1 1 0 0 0
1 2 1 1 1 0 1 0 0 1 1 1 1 1 1 1 1 1 1 1 1 1 1 1 1 1 1 1 1 1 0 0 1
0 0 0 0 0 0 0 0 0 1 0 0 0 0 0 0 0 0 0 0 0 0 0 0 1 1 1 1 1 1 1 0 1
0 0 0 0 0 0 0 0 0 0 0 0 0 0 0 0 0 0 0 0 0 0 0 0 0 0 0 1 1 1 1 0 1
0 0 0 0 0 0 0 0 0 0 0 0 0 0 0 0 0 0 0 0 0 0 0 0 0 0 0 0 0 1 1 0 0
0 0 0 0 0 0 0 0 0 0 0 0 0 0 0 0 0 0 0 0 0 0 0 0 0 0 0 0 0 0 0 0 0
0 0 0 0 0 0 0 0 0 0 0 0 0 0 0 0 0 0 0 0 0 0 0 0 0 0 0 0 0 0 0 0 0
0 0 0 0 0 0 0 0 0 0 0 0 0 0 0 0 0 0 0 0 0 0 0 0 0 0 0 0 0 0 0 0 0
1 1 0 0 0 0 0 0 0 0 0 0 0 0 0 0 0 0 0 0 0 0 0 0 0 0 0 0 0 0 0 0 0
0 0 0 0 0 0 0 0 0 0 0 0 0 0 0 0 0 0 0 0 0 0 0 -0 -0 0 0 0 0 0 0 0 0
Wind_Speed_500mb
52 48 53 48 53 59 65 65 67 68 66 71 67 58 53 54 56 52 54 49 44 39 35 30 26 14 36 22 22 22 24 29 31
57 42 53 49 47 49 57 70 69 68 65 63 70 62 54 51 59 59 49 43 36 44 38 33 40 35 22 25 26 22 23 26 28
34 27 24 21 20 51 49 51 61 63 62 63 59 58 54 49 53 57 56 55 54 53 44 38 29 25 31 37 31 23 25 28 34
33 32 24 16 13 12 16 17 38 52 46 45 43 43 45 44 45 51 54 55 53 55 53 52 57 39 52 49 36 32 30 32 35
32 29 28 24 22 21 21 18 21 31 37 40 39 41 44 50 48 48 46 44 40 39 44 42 39 50 49 54 46 40 39 36 37
32 32 32 29 27 27 27 25 25 22 25 25 29 30 34 34 37 44 43 51 38 40 40 46 45 38 53 56 52 46 49 44 43
33 33 34 34 31 30 28 27 27 26 22 13 11 17 25 29 34 33 35 35 33 37 46 45 43 44 41 49 51 50 54 58 53
40 38 33 34 34 29 27 23 22 16 15 19 16 15 9 13 23 22 30 35 34 26 29 35 38 43 45 49 53 55 58 60 53
45 37 36 40 34 30 26 20 17 11 11 5 9 9 13 15 17 19 25 32 32 34 39 42 35 38 42 47 53 57 58 52 39
49 44 33 28 29 29 24 20 16 14 15 13 12 10 8 6 5 4 7 19 26 27 32 34 38 40 43 49 49 54 59 57 54
54 50 39 34 29 30 28 25 22 16 11 12 9 7 3 2 3 5 9 13 15 19 22 22 25 32 39 46 51 52 55 54 52
51 49 38 32 30 26 23 21 18 18 12 9 6 4 9 12 15 17 17 16 18 17 20 24 26 27 31 36 41 42 47 50 55
39 38 39 34 27 25 23 20 16 12 8 3 6 13 18 22 24 26 26 26 28 31 29 29 25 37 32 37 42 42 41 44 50
45 42 36 33 31 29 25 18 13 9 2 9 18 21 21 22 25 23 19 27 32 35 36 35 37 41 42 43 42 43 43 38 38
44 44 40 32 29 24 18 15 11 4 8 17 19 19 16 18 18 17 14 24 23 22 22 29 27 31 35 34 34 42 43 47 45
45 41 37 32 29 21 13 7 3 5 14 17 15 12 14 15 18 21 30 27 25 27 24 24 25 27 27 24 18 33 29 33 43
44 40 37 30 25 23 14 3 5 7 16 16 12 13 14 16 19 13 18 20 17 17 18 22 31 37 37 38 39 30 36 24 21
40 37 32 28 26 19 12 4 1 4 9 10 7 8 14 13 8 15 16 14 18 19 19 25 35 38 37 38 38 37 42 49 53
41 36 33 29 23 19 11 8 4 5 5 11 8 12 10 17 15 14 14 17 13 16 17 27 30 37 40 38 30 35 38 38 36
41 34 32 28 24 16 9 9 5 9 1 7 10 15 22 14 21 27 26 26 22 18 18 21 22 33 38 36 39 42 38 38 39
Wind_Direction_500mb
176 184 184 197 201 198 201 203 209 210 215 219 225 235 248 240 242 233 238 242 245 254 263 266 321 205 270 269 273 249 248 243 239
156 177 185 187 197 207 209 205 206 209 213 222 225 235 244 249 234 240 240 248 254 270 275 277 260 274 228 258 277 257 256 252 250
114 142 148 165 185 202 201 208 207 204 209 215 227 231 240 248 240 239 243 238 239 245 248 254 255 246 238 260 268 258 264 262 255
132 130 123 113 100 100 139 190 196 192 195 204 220 229 226 241 243 240 245 251 258 259 260 257 248 242 250 257 254 261 258 262 258
144 128 120 120 113 110 115 139 154 180 193 206 216 225 232 228 235 240 243 257 263 268 270 271 261 235 246 255 253 248 255 254 255
125 126 127 129 122 119 120 122 140 163 183 206 216 227 231 244 235 248 247 231 246 259 260 263 266 257 234 249 253 244 251 255 252
144 140 150 139 132 124 127 128 136 136 144 159 196 200 222 237 226 240 240 253 253 249 248 253 253 258 254 247 250 246 247 253 253
156 151 145 151 142 136 133 134 138 140 139 183 155 167 188 215 213 204 217 232 234 233 238 249 257 252 251 251 250 249 246 246 252
149 161 153 141 135 141 136 134 132 138 138 98 199 193 197 212 220 237 256 251 250 249 250 249 252 258 257 254 255 255 253 257 234
156 140 128 137 145 138 134 132 125 113 104 105 115 132 176 181 191 211 279 262 255 259 254 255 255 257 258 262 263 261 263 263 254
131 131 141 137 131 128 124 125 120 131 132 144 161 169 203 274 275 272 271 283 303 306 290 279 263 266 264 265 266 268 268 266 262
123 126 130 138 129 122 117 118 134 148 127 113 99 25 336 325 313 303 297 283 270 261 274 289 286 273 276 276 279 274 272 272 274
134 141 144 133 131 126 124 122 123 116 93 55 357 333 316 306 301 298 297 294 290 285 275 270 287 288 268 269 273 279 278 281 277
147 143 140 140 140 132 128 131 130 116 62 319 324 317 312 309 308 310 322 299 295 292 291 286 278 273 278 283 279 279 282 288 293
143 138 135 137 130 125 129 139 138 120 289 317 319 321 333 324 329 335 324 327 336 342 358 347 344 334 324 321 317 305 306 280 283
145 147 149 147 143 140 128 117 72 355 324 331 336 358 336 342 342 359 342 349 5 355 341 335 325 318 307 303 315 344 307 264 264
155 156 154 155 153 147 142 91 8 351 315 333 358 353 354 351 353 343 337 346 344 329 330 322 325 317 308 294 277 306 308 295 279
156 154 150 150 156 154 147 150 347 340 343 330 353 10 21 344 339 337 348 342 339 330 319 340 354 354 346 327 316 309 303 299 297
156 153 153 149 152 144 137 121 114 286 352 300 332 49 354 342 359 1 352 350 328 347 350 1 353 360 0 3 355 352 343 337 328
158 157 153 148 151 147 137 117 213 333 324 336 56 46 10 22 347 10 350 359 360 17 360 353 4 10 5 3 4 358 355 350 346
Wind_Speed_850mb
52 48 53 48 53 59 65 65 67 68 66 71 67 58 53 54 56 52 54 49 44 39 35 30 26 14 36 22 22 22 24 29 31
57 42 53 49 47 49 57 70 69 68 65 63 70 62 54 51 59 59 49 43 36 44 38 33 40 35 22 25 26 22 23 26 28
34 27 24 21 20 51 49 51 61 63 62 63 59 58 54 49 53 57 56 55 54 53 44 38 29 25 31 37 31 23 25 28 34
33 32 24 16 13 12 16 17 38 52 46 45 43 43 45 44 45 51 54 55 53 55 53 52 57 39 52 49 36 32 30 32 35
32 29 28 24 22 21 21 18 21 31 37 40 39 41 44 50 48 48 46 44 40 39 44 42 39 50 49 54 46 40 39 36 37
32 32 32 29 27 27 27 25 25 22 25 25 29 30 34 34 37 44 43 51 38 40 40 46 45 38 53 56 52 46 49 44 43
33 33 34 34 31 30 28 27 27 26 22 13 11 17 25 29 34 33 35 35 33 37 46 45 43 44 41 49 51 50 54 58 53
40 38 33 34 34 29 27 23 22 16 15 19 16 15 9 13 23 22 30 35 34 26 29 35 38 43 45 49 53 55 58 60 53
45 37 36 40 34 30 26 20 17 11 11 5 9 9 13 15 17 19 25 32 32 34 39 42 35 38 42 47 53 57 58 52 39
49 44 33 28 29 29 24 20 16 14 15 13 12 10 8 6 5 4 7 19 26 27 32 34 38 40 43 49 49 54 59 57 54
54 50 39 34 29 30 28 25 22 16 11 12 9 7 3 2 3 5 9 13 15 19 22 22 25 32 39 46 51 52 55 54 52
51 49 38 32 30 26 23 21 18 18 12 9 6 4 9 12 15 17 17 16 18 17 20 24 26 27 31 36 41 42 47 50 55
39 38 39 34 27 25 23 20 16 12 8 3 6 13 18 22 24 26 26 26 28 31 29 29 25 37 32 37 42 42 41 44 50
45 42 36 33 31 29 25 18 13 9 2 9 18 21 21 22 25 23 19 27 32 35 36 35 37 41 42 43 42 43 43 38 38
44 44 40 32 29 24 18 15 11 4 8 17 19 19 16 18 18 17 14 24 23 22 22 29 27 31 35 34 34 42 43 47 45
45 41 37 32 29 21 13 7 3 5 14 17 15 12 14 15 18 21 30 27 25 27 24 24 25 27 27 24 18 33 29 33 43
44 40 37 30 25 23 14 3 5 7 16 16 12 13 14 16 19 13 18 20 17 17 18 22 31 37 37 38 39 30 36 24 21
40 37 32 28 26 19 12 4 1 4 9 10 7 8 14 13 8 15 16 14 18 19 19 25 35 38 37 38 38 37 42 49 53
41 36 33 29 23 19 11 8 4 5 5 11 8 12 10 17 15 14 14 17 13 16 17 27 30 37 40 38 30 35 38 38 36
41 34 32 28 24 16 9 9 5 9 1 7 10 15 22 14 21 27 26 26 22 18 18 21 22 33 38 36 39 42 38 38 39
Wind_Direction_850mb
176 184 184 197 201 198 201 203 209 210 215 219 225 235 248 240 242 233 238 242 245 254 263 266 321 205 270 269 273 249 248 243 239
156 177 185 187 197 207 209 205 206 209 213 222 225 235 244 249 234 240 240 248 254 270 275 277 260 274 228 258 277 257 256 252 250
114 142 148 165 185 202 201 208 207 204 209 215 227 231 240 248 240 239 243 238 239 245 248 254 255 246 238 260 268 258 264 262 255
132 130 123 113 100 100 139 190 196 192 195 204 220 229 226 241 243 240 245 251 258 259 260 257 248 242 250 257 254 261 258 262 258
144 128 120 120 113 110 115 139 154 180 193 206 216 225 232 228 235 240 243 257 263 268 270 271 261 235 246 255 253 248 255 254 255
125 126 127 129 122 119 120 122 140 163 183 206 216 227 231 244 235 248 247 231 246 259 260 263 266 257 234 249 253 244 251 255 252
144 140 150 139 132 124 127 128 136 136 144 159 196 200 222 237 226 240 240 253 253 249 248 253 253 258 254 247 250 246 247 253 253
156 151 145 151 142 136 133 134 138 140 139 183 155 167 188 215 213 204 217 232 234 233 238 249 257 252 251 251 250 249 246 246 252
149 161 153 141 135 141 136 134 132 138 138 98 199 193 197 212 220 237 256 251 250 249 250 249 252 258 257 254 255 255 253 257 234
156 140 128 137 145 138 134 132 125 113 104 105 115 132 176 181 191 211 279 262 255 259 254 255 255 257 258 262 263 261 263 263 254
131 131 141 137 131 128 124 125 120 131 132 144 161 169 203 274 275 272 271 283 303 306 290 279 263 266 264 265 266 268 268 266 262
123 126 130 138 129 122 117 118 134 148 127 113 99 25 336 325 313 303 297 283 270 261 274 289 286 273 276 276 279 274 272 272 274
134 141 144 133 131 126 124 122 123 116 93 55 357 333 316 306 301 298 297 294 290 285 275 270 287 288 268 269 273 279 278 281 277
147 143 140 140 140 132 128 131 130 116 62 319 324 317 312 309 308 310 322 299 295 292 291 286 278 273 278 283 279 279 282 288 293
143 138 135 137 130 125 129 139 138 120 289 317 319 321 333 324 329 335 324 327 336 342 358 347 344 334 324 321 317 305 306 280 283
145 147 149 147 143 140 128 117 72 355 324 331 336 358 336 342 342 359 342 349 5 355 341 335 325 318 307 303 315 344 307 264 264
155 156 154 155 153 147 142 91 8 351 315 333 358 353 354 351 353 343 337 346 344 329 330 322 325 317 308 294 277 306 308 295 279
156 154 150 150 156 154 147 150 347 340 343 330 353 10 21 344 339 337 348 342 339 330 319 340 354 354 346 327 316 309 303 299 297
156 153 153 149 152 144 137 121 114 286 352 300 332 49 354 342 359 1 352 350 328 347 350 1 353 360 0 3 355 352 343 337 328
158 157 153 148 151 147 137 117 213 333 324 336 56 46 10 22 347 10 350 359 360 17 360 353 4 10 5 3 4 358 355 350 346